Regional Weather Roundup
Issued by NWS

Home | Current Version | Previous Version | Graphics & Text | Print | Product List | Glossary On
Versions: 1 2 3 4 5 6 7 8 9 10 11 12 13 14 15 16 17 18 19 20 21 22 23 24 25 26 27 28 29 30 31 32 33 34 35 36 37 38 39 40 41 42 43 44 45 46 47 48 49 50
000
ASUS43 KFSD 271605
RWRSD

SOUTH DAKOTA HOURLY REGIONAL WEATHER ROUNDUP
NATIONAL WEATHER SERVICE ABERDEEN SD
1100 AM CDT WED AUG 27 2014

...SATELLITE DATA IS USED TO AUGMENT CLOUD COVER ABOVE 12000 FEET...

NOTE: "FAIR" INDICATES FEW OR NO CLOUDS BELOW 12,000 FEET WITH NO
SIGNIFICANT WEATHER AND/OR OBSTRUCTION TO VISIBILITY.

SDZ001>005-009-010-012>017-271700-
...NORTHWEST AND NORTH CENTRAL SOUTH DAKOTA...

CITY           SKY/WX    TMP DP  RH WIND       PRES   REMARKS
BUFFALO          N/A     67  58  72 SE7       30.09F
FAITH            N/A     60  59  96 NE5       30.14F
MOBRIDGE       SUNNY     69  61  75 SE8       30.13R
$$

SDZ012>016-024>037-041>051-057-063-271700-
...SOUTHWEST AND SOUTH CENTRAL SOUTH DAKOTA...

CITY           SKY/WX    TMP DP  RH WIND       PRES   REMARKS
RAPID CITY     SUNNY     68  58  70 N12       30.14F
ELLSWORTH AFB  SUNNY     66  58  73 N9        30.14F
CUSTER         SUNNY     68  54  60 NE9       30.22F
PHILIP         CLOUDY    61  59  93 NE8       30.13R FOG
PINE RIDGE     MOSUNNY   72  63  73 MISG      30.13S
PIERRE         CLOUDY    65  64  97 E12       30.11S
WINNER         NOT AVBL
$$

SDZ004>011-016>023-039-040-271700-
...NORTHEAST SOUTH DAKOTA...

CITY           SKY/WX    TMP DP  RH WIND       PRES   REMARKS
ABERDEEN       SUNNY     67  59  75 SE12      30.18R
WATERTOWN      CLOUDY    65  57  75 SE12      30.20S
BROOKINGS      NOT AVBL
SISSETON         N/A     69  58  67 SE8       30.18S
$$

SDZ017-020-022-023-036>040-048>070-271700-
...SOUTHEAST SOUTH DAKOTA...

CITY           SKY/WX    TMP DP  RH WIND       PRES   REMARKS
SIOUX FALLS    CLOUDY    66  58  75 SE7       30.20F
YANKTON        CLOUDY    63  59  88 E8        30.16F
MITCHELL       CLOUDY    66  59  78 SE10      30.17F
HURON          CLOUDY    67  59  75 SE8       30.17S
CHAMBERLAIN    CLOUDY    66  61  85 SE13G18   30.14F
$$


USA.gov is the U.S. government's official web portal to all federal, state and local government web resources and services.